| time (UTC) | temp F | wind direction | speed MPH | gust MPH | rain 1hr in | rain 24hr in | rain mn in | humidity % | barometer mb |
| 20260510205658 | 64 | 148 | 2.0 | 6.0 | 0.00 | 0.00 | 0.00 | 42 | 1005.5 |
| 20260510205158 | 64 | 148 | 2.0 | 10.0 | 0.00 | 0.00 | 0.00 | 42 | 1005.5 |
| 20260510204701 | 64 | 146 | 1.0 | 7.0 | 0.00 | 0.00 | 0.00 | 42 | 1005.8 |
| 20260510204158 | 64 | 154 | 1.0 | 7.0 | 0.00 | 0.00 | 0.00 | 42 | 1005.8 |
| 20260510203704 | 65 | 183 | 1.0 | 9.0 | 0.00 | 0.00 | 0.00 | 41 | 1005.8 |
| 20260510203158 | 65 | 156 | 4.0 | 9.0 | 0.00 | 0.00 | 0.00 | 41 | 1005.8 |
| 20260510202658 | 65 | 145 | 2.0 | 7.0 | 0.00 | 0.00 | 0.00 | 41 | 1005.8 |
| 20260510202158 | 65 | 160 | 4.0 | 8.0 | 0.00 | 0.00 | 0.00 | 41 | 1005.8 |
| 20260510201701 | 65 | 152 | 4.0 | 8.0 | 0.00 | 0.00 | 0.00 | 41 | 1005.8 |
| 20260510201158 | 65 | 162 | 2.0 | 7.0 | 0.00 | 0.00 | 0.00 | 41 | 1005.8 |
| 20260510200658 | 65 | 152 | 3.0 | 6.0 | 0.00 | 0.00 | 0.00 | 41 | 1005.8 |
| 20260510200158 | 65 | 139 | 2.0 | 7.0 | 0.00 | 0.00 | 0.00 | 40 | 1005.8 |
| 20260510195658 | 65 | 156 | 2.0 | 7.0 | 0.00 | 0.00 | 0.00 | 40 | 1005.8 |
| 20260510195201 | 65 | 140 | 1.0 | 9.0 | 0.00 | 0.00 | 0.00 | 41 | 1005.8 |
| 20260510194701 | 65 | 150 | 2.0 | 6.0 | 0.00 | 0.00 | 0.00 | 41 | 1005.8 |
| 20260510194158 | 65 | 157 | 1.0 | 6.0 | 0.00 | 0.00 | 0.00 | 41 | 1005.8 |
| 20260510193704 | 66 | 157 | 1.0 | 5.0 | 0.00 | 0.00 | 0.00 | 41 | 1005.8 |
| 20260510193158 | 66 | 137 | 1.0 | 8.0 | 0.00 | 0.00 | 0.00 | 41 | 1005.8 |
| 20260510192701 | 66 | 119 | 1.0 | 7.0 | 0.00 | 0.00 | 0.00 | 41 | 1006.2 |
| 20260510192201 | 66 | 135 | 1.0 | 5.0 | 0.00 | 0.00 | 0.00 | 41 | 1005.8 |
| 20260510191701 | 66 | 144 | 0.0 | 3.0 | 0.00 | 0.00 | 0.00 | 42 | 1005.8 |
| 20260510191158 | 66 | 118 | 2.0 | 4.0 | 0.00 | 0.00 | 0.00 | 41 | 1005.8 |
| 20260510190658 | 66 | 93 | 2.0 | 4.0 | 0.00 | 0.00 | 0.00 | 40 | 1006.2 |
| 20260510190158 | 67 | 174 | 1.0 | 5.0 | 0.00 | 0.00 | 0.00 | 40 | 1005.8 |
| 20260510185701 | 67 | 146 | 0.0 | 4.0 | 0.00 | 0.00 | 0.00 | 40 | 1005.8 |
| 20260510185204 | 67 | 149 | 1.0 | 4.0 | 0.00 | 0.00 | 0.00 | 40 | 1005.8 |
| 20260510184658 | 67 | 107 | 1.0 | 2.0 | 0.00 | 0.00 | 0.00 | 40 | 1005.8 |
| 20260510184201 | 67 | 169 | 1.0 | 4.0 | 0.00 | 0.00 | 0.00 | 40 | 1005.8 |
| 20260510183701 | 68 | 147 | 0.0 | 3.0 | 0.00 | 0.00 | 0.00 | 40 | 1005.8 |
| 20260510183204 | 68 | 122 | 1.0 | 4.0 | 0.00 | 0.00 | 0.00 | 38 | 1005.8 |
| 20260510182704 | 68 | 87 | 0.0 | 4.0 | 0.00 | 0.00 | 0.00 | 38 | 1005.8 |
| 20260510182158 | 68 | 86 | 2.0 | 4.0 | 0.00 | 0.00 | 0.00 | 37 | 1005.8 |
| 20260510181658 | 68 | 84 | 1.0 | 3.0 | 0.00 | 0.00 | 0.00 | 37 | 1005.8 |
| 20260510181201 | 69 | 44 | 1.0 | 3.0 | 0.00 | 0.00 | 0.00 | 36 | 1005.8 |
| 20260510180658 | 69 | 136 | 0.0 | 5.0 | 0.00 | 0.00 | 0.00 | 36 | 1005.8 |
| 20260510180201 | 69 | 163 | 1.0 | 5.0 | 0.00 | 0.00 | 0.00 | 36 | 1005.8 |
| 20260510175658 | 70 | 74 | 3.0 | 5.0 | 0.00 | 0.00 | 0.00 | 35 | 1005.8 |
| 20260510175201 | 70 | 136 | 1.0 | 7.0 | 0.00 | 0.00 | 0.00 | 34 | 1005.8 |
| 20260510174658 | 70 | 140 | 2.0 | 10.0 | 0.00 | 0.00 | 0.00 | 34 | 1005.8 |
| 20260510174201 | 70 | 92 | 3.0 | 5.0 | 0.00 | 0.00 | 0.00 | 34 | 1005.8 |
| 20260510173701 | 70 | 118 | 1.0 | 7.0 | 0.00 | 0.00 | 0.00 | 34 | 1005.8 |
| 20260510173158 | 71 | 88 | 3.0 | 5.0 | 0.00 | 0.00 | 0.00 | 33 | 1005.8 |
| 20260510172658 | 71 | 95 | 2.0 | 6.0 | 0.00 | 0.00 | 0.00 | 33 | 1005.8 |
| 20260510172158 | 71 | 50 | 1.0 | 7.0 | 0.00 | 0.00 | 0.00 | 33 | 1005.8 |
| 20260510171701 | 71 | 96 | 1.0 | 7.0 | 0.00 | 0.00 | 0.00 | 33 | 1006.2 |
| 20260510171158 | 71 | 105 | 3.0 | 7.0 | 0.00 | 0.00 | 0.00 | 33 | 1006.2 |
| 20260510170658 | 71 | 96 | 4.0 | 7.0 | 0.00 | 0.00 | 0.00 | 32 | 1006.2 |
| 20260510170201 | 72 | 93 | 3.0 | 8.0 | 0.00 | 0.00 | 0.00 | 32 | 1006.2 |
| 20260510165658 | 72 | 86 | 2.0 | 8.0 | 0.00 | 0.00 | 0.00 | 31 | 1006.2 |
| 20260510165201 | 72 | 92 | 2.0 | 11.0 | 0.00 | 0.00 | 0.00 | 31 | 1006.2 |
| 20260510164701 | 73 | 134 | 6.0 | 11.0 | 0.00 | 0.00 | 0.00 | 30 | 1006.2 |
| 20260510164158 | 73 | 94 | 1.0 | 6.0 | 0.00 | 0.00 | 0.00 | 30 | 1006.6 |
| 20260510163704 | 73 | 98 | 3.0 | 12.0 | 0.00 | 0.00 | 0.00 | 30 | 1006.6 |
| 20260510163201 | 73 | 100 | 2.0 | 8.0 | 0.00 | 0.00 | 0.00 | 30 | 1006.6 |
| 20260510162701 | 73 | 124 | 2.0 | 8.0 | 0.00 | 0.00 | 0.00 | 31 | 1006.6 |
| 20260510162201 | 73 | 113 | 3.0 | 12.0 | 0.00 | 0.00 | 0.00 | 29 | 1006.9 |
| 20260510161658 | 74 | 87 | 4.0 | 9.0 | 0.00 | 0.00 | 0.00 | 29 | 1006.9 |
| 20260510161158 | 74 | 95 | 4.0 | 8.0 | 0.00 | 0.00 | 0.00 | 29 | 1006.9 |
| 20260510160701 | 74 | 137 | 2.0 | 8.0 | 0.00 | 0.00 | 0.00 | 30 | 1006.9 |
| 20260510160158 | 74 | 113 | 4.0 | 7.0 | 0.00 | 0.00 | 0.00 | 29 | 1006.9 |
| 20260510155704 | 74 | 139 | 2.0 | 8.0 | 0.00 | 0.00 | 0.00 | 28 | 1006.9 |
| 20260510155207 | 74 | 162 | 2.0 | 9.0 | 0.00 | 0.00 | 0.00 | 29 | 1007.2 |
| 20260510154701 | 75 | 177 | 4.0 | 9.0 | 0.00 | 0.00 | 0.00 | 28 | 1007.2 |
| 20260510154204 | 75 | 174 | 3.0 | 7.0 | 0.00 | 0.00 | 0.00 | 28 | 1007.2 |
| 20260510153704 | 75 | 160 | 4.0 | 6.0 | 0.00 | 0.00 | 0.00 | 27 | 1007.2 |
| 20260510153204 | 75 | 157 | 1.0 | 8.0 | 0.00 | 0.00 | 0.00 | 29 | 1007.2 |
| 20260510152704 | 75 | 171 | 4.0 | 9.0 | 0.00 | 0.00 | 0.00 | 27 | 1007.6 |
| 20260510152204 | 77 | 150 | 2.0 | 8.0 | 0.00 | 0.00 | 0.00 | 25 | 1007.6 |
| 20260510151701 | 77 | 235 | 2.0 | 6.0 | 0.00 | 0.00 | 0.00 | 25 | 1007.6 |
| 20260510151201 | 77 | 205 | 1.0 | 5.0 | 0.00 | 0.00 | 0.00 | 26 | 1007.6 |
| 20260510150658 | 76 | 196 | 2.0 | 6.0 | 0.00 | 0.00 | 0.00 | 26 | 1007.6 |
| 20260510150158 | 76 | 97 | 2.0 | 8.0 | 0.00 | 0.00 | 0.00 | 26 | 1007.6 |
| 20260510145701 | 77 | 92 | 3.0 | 11.0 | 0.00 | 0.00 | 0.00 | 26 | 1007.6 |
| 20260510145158 | 76 | 101 | 5.0 | 11.0 | 0.00 | 0.00 | 0.00 | 27 | 1007.6 |
| 20260510144701 | 74 | 10 | 2.0 | 8.0 | 0.00 | 0.00 | 0.00 | 26 | 1007.6 |
| 20260510144158 | 76 | 30 | 2.0 | 7.0 | 0.00 | 0.00 | 0.00 | 26 | 1007.9 |
| 20260510143704 | 78 | 179 | 2.0 | 4.0 | 0.00 | 0.00 | 0.00 | 26 | 1007.9 |
| 20260510143204 | 76 | 111 | 1.0 | 9.0 | 0.00 | 0.00 | 0.00 | 26 | 1007.9 |
| 20260510142658 | 77 | 203 | 1.0 | 4.0 | 0.00 | 0.00 | 0.00 | 27 | 1007.9 |
| 20260510142201 | 78 | 342 | 2.0 | 5.0 | 0.00 | 0.00 | 0.00 | 25 | 1008.3 |
| 20260510141701 | 78 | 188 | 2.0 | 6.0 | 0.00 | 0.00 | 0.00 | 26 | 1008.3 |
| 20260510141158 | 77 | 141 | 4.0 | 6.0 | 0.00 | 0.00 | 0.00 | 26 | 1008.3 |
| 20260510140658 | 76 | 182 | 2.0 | 7.0 | 0.00 | 0.00 | 0.00 | 26 | 1008.3 |
| 20260510140201 | 74 | 13 | 4.0 | 7.0 | 0.00 | 0.00 | 0.00 | 27 | 1008.3 |
| 20260510135704 | 78 | 86 | 2.0 | 7.0 | 0.00 | 0.00 | 0.00 | 26 | 1008.7 |
| 20260510135158 | 75 | 91 | 2.0 | 8.0 | 0.00 | 0.00 | 0.00 | 27 | 1008.7 |
| 20260510134658 | 77 | 28 | 5.0 | 8.0 | 0.00 | 0.00 | 0.00 | 25 | 1008.7 |
| 20260510134158 | 80 | 159 | 1.0 | 3.0 | 0.00 | 0.00 | 0.00 | 25 | 1008.7 |
| 20260510133701 | 76 | 320 | 1.0 | 5.0 | 0.00 | 0.00 | 0.00 | 28 | 1008.7 |
| 20260510133201 | 75 | 116 | 3.0 | 10.0 | 0.00 | 0.00 | 0.00 | 27 | 1008.7 |
| 20260510132704 | 75 | 99 | 3.0 | 9.0 | 0.00 | 0.00 | 0.00 | 27 | 1009.0 |
| 20260510132158 | 76 | 180 | 2.0 | 5.0 | 0.00 | 0.00 | 0.00 | 27 | 1009.0 |
| 20260510131701 | 74 | 86 | 1.0 | 7.0 | 0.00 | 0.00 | 0.00 | 29 | 1009.0 |
| 20260510131158 | 74 | 54 | 2.0 | 7.0 | 0.00 | 0.00 | 0.00 | 29 | 1009.0 |
| 20260510130707 | 76 | 139 | 2.0 | 4.0 | 0.00 | 0.00 | 0.00 | 27 | 1009.3 |
| 20260510130158 | 75 | 142 | 1.0 | 6.0 | 0.00 | 0.00 | 0.00 | 30 | 1009.3 |
| 20260510125658 | 74 | 150 | 2.0 | 6.0 | 0.00 | 0.00 | 0.00 | 29 | 1009.3 |
| 20260510125204 | 75 | 97 | 2.0 | 6.0 | 0.00 | 0.00 | 0.00 | 29 | 1009.3 |
| 20260510124658 | 74 | 237 | 1.0 | 8.0 | 0.00 | 0.00 | 0.00 | 30 | 1009.3 |
| 20260510124158 | 74 | 170 | 3.0 | 6.0 | 0.00 | 0.00 | 0.00 | 30 | 1009.7 |
| 20260510123701 | 73 | 106 | 2.0 | 8.0 | 0.00 | 0.00 | 0.00 | 31 | 1009.7 |
| 20260510123201 | 73 | 165 | 4.0 | 12.0 | 0.00 | 0.00 | 0.00 | 30 | 1009.7 |
| 20260510122701 | 74 | 89 | 2.0 | 5.0 | 0.00 | 0.00 | 0.00 | 29 | 1009.7 |
| 20260510122201 | 74 | 149 | 1.0 | 8.0 | 0.00 | 0.00 | 0.00 | 30 | 1009.7 |
| 20260510121658 | 73 | 40 | 1.0 | 6.0 | 0.00 | 0.00 | 0.00 | 32 | 1009.7 |
| 20260510121201 | 73 | 25 | 3.0 | 8.0 | 0.00 | 0.00 | 0.00 | 30 | 1010.0 |
| 20260510120701 | 74 | 173 | 0.0 | 5.0 | 0.00 | 0.00 | 0.00 | 31 | 1010.0 |
| 20260510120204 | 73 | 135 | 2.0 | 6.0 | 0.00 | 0.00 | 0.00 | 31 | 1010.0 |
| 20260510115658 | 74 | 28 | 2.0 | 7.0 | 0.00 | 0.00 | 0.00 | 29 | 1010.0 |
| 20260510115204 | 74 | 142 | 2.0 | 8.0 | 0.00 | 0.00 | 0.00 | 30 | 1010.0 |
| 20260510114705 | 75 | 137 | 2.0 | 7.0 | 0.00 | 0.00 | 0.00 | 30 | 1010.4 |
| 20260510114158 | 76 | 111 | 3.0 | 8.0 | 0.00 | 0.00 | 0.00 | 29 | 1010.4 |
| 20260510113701 | 74 | 81 | 2.0 | 8.0 | 0.00 | 0.00 | 0.00 | 31 | 1010.4 |
| 20260510113159 | 73 | 135 | 2.0 | 8.0 | 0.00 | 0.00 | 0.00 | 31 | 1010.4 |
| 20260510112658 | 73 | 164 | 3.0 | 10.0 | 0.00 | 0.00 | 0.00 | 32 | 1010.4 |
| 20260510112201 | 74 | 136 | 4.0 | 10.0 | 0.00 | 0.00 | 0.00 | 32 | 1010.4 |
| 20260510111658 | 73 | 135 | 4.0 | 9.0 | 0.00 | 0.00 | 0.00 | 33 | 1010.4 |
| 20260510111204 | 72 | 180 | 6.0 | 11.0 | 0.00 | 0.00 | 0.00 | 34 | 1010.4 |
| 20260510110701 | 73 | 203 | 3.0 | 8.0 | 0.00 | 0.00 | 0.00 | 33 | 1010.4 |
| 20260510110201 | 73 | 182 | 5.0 | 8.0 | 0.00 | 0.00 | 0.00 | 33 | 1010.4 |
| 20260510105701 | 73 | 208 | 5.0 | 8.0 | 0.00 | 0.00 | 0.00 | 32 | 1010.8 |
| 20260510105201 | 73 | 114 | 3.0 | 10.0 | 0.00 | 0.00 | 0.00 | 34 | 1010.8 |
| 20260510104701 | 73 | 186 | 3.0 | 9.0 | 0.00 | 0.00 | 0.00 | 33 | 1010.8 |
| 20260510104158 | 74 | 218 | 1.0 | 9.0 | 0.00 | 0.00 | 0.00 | 35 | 1010.8 |
| 20260510103658 | 74 | 121 | 2.0 | 5.0 | 0.00 | 0.00 | 0.00 | 36 | 1010.8 |
| 20260510103158 | 73 | 148 | 2.0 | 9.0 | 0.00 | 0.00 | 0.00 | 36 | 1010.8 |
| 20260510102658 | 72 | 153 | 3.0 | 7.0 | 0.00 | 0.00 | 0.00 | 38 | 1011.1 |
| 20260510102204 | 73 | 139 | 1.0 | 8.0 | 0.00 | 0.00 | 0.00 | 39 | 1011.1 |
| 20260510101701 | 72 | 100 | 2.0 | 8.0 | 0.00 | 0.00 | 0.00 | 40 | 1011.1 |
| 20260510101204 | 72 | 92 | 4.0 | 8.0 | 0.00 | 0.00 | 0.00 | 39 | 1011.1 |
| 20260510100701 | 71 | 174 | 3.0 | 10.0 | 0.00 | 0.00 | 0.00 | 41 | 1011.1 |
| 20260510100201 | 70 | 188 | 5.0 | 10.0 | 0.00 | 0.00 | 0.00 | 40 | 1011.1 |
| 20260510095658 | 70 | 163 | 3.0 | 8.0 | 0.00 | 0.00 | 0.00 | 41 | 1011.1 |
| 20260510095158 | 70 | 198 | 3.0 | 12.0 | 0.00 | 0.00 | 0.00 | 40 | 1011.4 |
| 20260510094658 | 71 | 121 | 5.0 | 10.0 | 0.00 | 0.00 | 0.00 | 41 | 1011.4 |
| 20260510094158 | 70 | 172 | 4.0 | 9.0 | 0.00 | 0.00 | 0.00 | 41 | 1011.4 |
| 20260510093658 | 70 | 177 | 3.0 | 7.0 | 0.00 | 0.00 | 0.00 | 41 | 1011.4 |
| 20260510093201 | 68 | 169 | 3.0 | 8.0 | 0.00 | 0.00 | 0.00 | 44 | 1011.4 |
| 20260510092704 | 69 | 169 | 3.0 | 8.0 | 0.00 | 0.00 | 0.00 | 42 | 1011.4 |
| 20260510092204 | 69 | 133 | 3.0 | 7.0 | 0.00 | 0.00 | 0.00 | 43 | 1011.4 |
| 20260510091701 | 69 | 97 | 2.0 | 9.0 | 0.00 | 0.00 | 0.00 | 43 | 1011.4 |
| 20260510091158 | 68 | 133 | 3.0 | 10.0 | 0.00 | 0.00 | 0.00 | 44 | 1011.4 |
| 20260510090701 | 68 | 174 | 4.0 | 10.0 | 0.00 | 0.00 | 0.00 | 44 | 1011.8 |
| 20260510090158 | 67 | 104 | 3.0 | 6.0 | 0.00 | 0.00 | 0.00 | 45 | 1011.8 |
| 20260510085701 | 67 | 143 | 3.0 | 8.0 | 0.00 | 0.00 | 0.00 | 45 | 1011.8 |
| 20260510085158 | 68 | 147 | 0.0 | 7.0 | 0.00 | 0.00 | 0.00 | 46 | 1011.8 |
| 20260510084704 | 67 | 162 | 1.0 | 7.0 | 0.00 | 0.00 | 0.00 | 46 | 1011.8 |
| 20260510084204 | 66 | 116 | 3.0 | 9.0 | 0.00 | 0.00 | 0.00 | 46 | 1011.8 |
| 20260510083701 | 67 | 143 | 4.0 | 6.0 | 0.00 | 0.00 | 0.00 | 46 | 1012.1 |
| 20260510083201 | 66 | 121 | 2.0 | 9.0 | 0.00 | 0.00 | 0.00 | 47 | 1012.1 |
| 20260510082658 | 66 | 137 | 4.0 | 9.0 | 0.00 | 0.00 | 0.00 | 47 | 1012.1 |
| 20260510082204 | 65 | 100 | 3.0 | 8.0 | 0.00 | 0.00 | 0.00 | 48 | 1012.1 |
| 20260510081701 | 65 | 124 | 2.0 | 9.0 | 0.00 | 0.00 | 0.00 | 49 | 1012.1 |
| 20260510081158 | 64 | 164 | 2.0 | 8.0 | 0.00 | 0.00 | 0.00 | 49 | 1012.1 |
| 20260510080658 | 63 | 172 | 3.0 | 8.0 | 0.00 | 0.00 | 0.00 | 50 | 1012.1 |
| 20260510080158 | 64 | 184 | 4.0 | 9.0 | 0.00 | 0.00 | 0.00 | 49 | 1012.1 |
| 20260510075658 | 63 | 130 | 3.0 | 12.0 | 0.00 | 0.00 | 0.00 | 51 | 1012.5 |
| 20260510075201 | 63 | 167 | 5.0 | 12.0 | 0.00 | 0.00 | 0.00 | 50 | 1012.1 |
| 20260510074658 | 62 | 185 | 4.0 | 8.0 | 0.00 | 0.00 | 0.00 | 51 | 1012.5 |
| 20260510074207 | 62 | 176 | 4.0 | 8.0 | 0.00 | 0.00 | 0.00 | 50 | 1012.5 |
| 20260510073701 | 62 | 180 | 3.0 | 10.0 | 0.00 | 0.00 | 0.00 | 51 | 1012.1 |
| 20260510073201 | 62 | 121 | 2.0 | 7.0 | 0.00 | 0.00 | 0.00 | 53 | 1012.5 |
| 20260510072701 | 61 | 175 | 4.0 | 7.0 | 0.00 | 0.00 | 0.00 | 52 | 1012.5 |
| 20260510072204 | 61 | 164 | 4.0 | 8.0 | 0.00 | 0.00 | 0.00 | 52 | 1012.5 |
| 20260510071658 | 61 | 185 | 4.0 | 10.0 | 0.00 | 0.00 | 0.00 | 53 | 1012.5 |
| 20260510071158 | 61 | 171 | 2.0 | 7.0 | 0.00 | 0.00 | 0.00 | 53 | 1012.5 |
| 20260510070658 | 61 | 169 | 2.0 | 8.0 | 0.00 | 0.00 | 0.00 | 54 | 1012.5 |
| 20260510070201 | 60 | 184 | 4.0 | 8.0 | 0.00 | 0.00 | 0.00 | 55 | 1012.5 |
| 20260510065701 | 60 | 187 | 2.0 | 7.0 | 0.00 | 0.00 | 0.00 | 55 | 1012.5 |
| 20260510065158 | 59 | 175 | 3.0 | 6.0 | 0.00 | 0.00 | 0.00 | 55 | 1012.5 |
| 20260510064658 | 59 | 170 | 3.0 | 8.0 | 0.00 | 0.00 | 0.00 | 56 | 1012.5 |
| 20260510064158 | 59 | 178 | 2.0 | 6.0 | 0.00 | 0.00 | 0.00 | 55 | 1012.9 |
| 20260510063704 | 59 | 123 | 1.0 | 6.0 | 0.00 | 0.00 | 0.00 | 55 | 1012.9 |
| 20260510063158 | 60 | 187 | 1.0 | 4.0 | 0.00 | 0.00 | 0.00 | 55 | 1012.9 |
| 20260510062701 | 60 | 125 | 2.0 | 4.0 | 0.00 | 0.00 | 0.00 | 55 | 1012.9 |
| 20260510062158 | 60 | 175 | 0.0 | 2.0 | 0.00 | 0.00 | 0.00 | 56 | 1012.9 |
| 20260510061658 | 60 | 114 | 0.0 | 2.0 | 0.00 | 0.00 | 0.00 | 57 | 1012.9 |
| 20260510061201 | 59 | 86 | 1.0 | 2.0 | 0.00 | 0.00 | 0.00 | 58 | 1012.9 |
| 20260510060658 | 58 | 88 | 0.0 | 1.0 | 0.00 | 0.00 | 0.00 | 60 | 1012.9 |
| 20260510060158 | 58 | 108 | 1.0 | 1.0 | 0.00 | 0.00 | 0.00 | 60 | 1013.2 |
| 20260510055658 | 57 | 194 | 0.0 | 2.0 | 0.00 | 0.00 | 0.00 | 64 | 1013.2 |
| 20260510055201 | 55 | 56 | 0.0 | 2.0 | 0.00 | 0.00 | 0.00 | 67 | 1013.2 |
| 20260510054704 | 53 | 31 | 0.0 | 2.0 | 0.00 | 0.00 | 0.00 | 72 | 1013.2 |
| 20260510054204 | 51 | 225 | 0.0 | 1.0 | 0.00 | 0.00 | 0.00 | 78 | 1013.2 |
| 20260510053701 | 50 | 336 | 0.0 | 2.0 | 0.00 | 0.00 | 0.00 | 79 | 1013.2 |
| 20260510053158 | 50 | 310 | 0.0 | 4.0 | 0.00 | 0.00 | 0.00 | 79 | 1013.2 |
| 20260510052658 | 50 | 315 | 2.0 | 4.0 | 0.00 | 0.00 | 0.00 | 79 | 1013.2 |
| 20260510052158 | 50 | 300 | 1.0 | 3.0 | 0.00 | 0.00 | 0.00 | 78 | 1013.2 |
| 20260510051707 | 50 | 318 | 1.0 | 3.0 | 0.00 | 0.00 | 0.00 | 79 | 1013.2 |
| 20260510051158 | 50 | 302 | 0.0 | 2.0 | 0.00 | 0.00 | 0.00 | 80 | 1013.2 |
| 20260510050701 | 50 | 263 | 0.0 | 1.0 | 0.00 | 0.00 | 0.00 | 80 | 1013.2 |
| 20260510050207 | 49 | 292 | 0.0 | 1.0 | 0.00 | 0.00 | 0.00 | 81 | 1013.2 |
| 20260510045658 | 49 | 317 | 0.0 | 2.0 | 0.00 | 0.00 | 0.00 | 82 | 1013.2 |
| 20260510045158 | 49 | 306 | 0.0 | 2.0 | 0.00 | 0.00 | 0.00 | 82 | 1013.2 |
| 20260510044658 | 48 | 324 | 1.0 | 2.0 | 0.00 | 0.00 | 0.00 | 83 | 1013.2 |
| 20260510044201 | 48 | 293 | 0.0 | 1.0 | 0.00 | 0.00 | 0.00 | 85 | 1013.2 |
| 20260510043658 | 48 | 226 | 0.0 | 1.0 | 0.00 | 0.00 | 0.00 | 85 | 1013.2 |
| 20260510043201 | 47 | 202 | 1.0 | 1.0 | 0.00 | 0.00 | 0.00 | 86 | 1013.2 |
| 20260510042707 | 47 | 253 | 0.0 | 2.0 | 0.00 | 0.00 | 0.00 | 87 | 1013.5 |
| 20260510042204 | 46 | 306 | 1.0 | 2.0 | 0.00 | 0.00 | 0.00 | 87 | 1013.5 |
| 20260510041701 | 46 | 268 | 0.0 | 2.0 | 0.00 | 0.00 | 0.00 | 87 | 1013.5 |
| 20260510041158 | 46 | 304 | 0.0 | 2.0 | 0.00 | 0.00 | 0.00 | 87 | 1013.5 |
| 20260510040704 | 46 | 329 | 1.0 | 2.0 | 0.00 | 0.00 | 0.00 | 87 | 1013.5 |
| 20260510040158 | 46 | 308 | 1.0 | 4.0 | 0.00 | 0.00 | 0.00 | 87 | 1013.5 |
| 20260510035658 | 46 | 293 | 1.0 | 3.0 | 0.00 | 0.00 | 0.00 | 87 | 1013.5 |
| 20260510035207 | 46 | 311 | 1.0 | 3.0 | 0.00 | 0.00 | 0.00 | 87 | 1013.5 |
| 20260510034701 | 46 | 320 | 2.0 | 3.0 | 0.00 | 0.00 | 0.00 | 86 | 1013.5 |
| 20260510034201 | 46 | 296 | 1.0 | 3.0 | 0.00 | 0.00 | 0.00 | 86 | 1013.5 |
| 20260510033658 | 46 | 290 | 1.0 | 2.0 | 0.00 | 0.00 | 0.00 | 86 | 1013.5 |
| 20260510033158 | 46 | 295 | 1.0 | 2.0 | 0.00 | 0.00 | 0.00 | 87 | 1013.2 |
| 20260510032702 | 46 | 299 | 0.0 | 1.0 | 0.00 | 0.00 | 0.00 | 87 | 1013.2 |
| 20260510032201 | 46 | 297 | 0.0 | 1.0 | 0.00 | 0.00 | 0.00 | 87 | 1013.2 |
| 20260510031701 | 46 | 272 | 0.0 | 1.0 | 0.00 | 0.00 | 0.00 | 87 | 1013.5 |
| 20260510031158 | 46 | 300 | 0.0 | 1.0 | 0.00 | 0.00 | 0.00 | 87 | 1013.5 |
| 20260510030658 | 47 | 311 | 0.0 | 1.0 | 0.00 | 0.00 | 0.00 | 86 | 1013.5 |
| 20260510030204 | 47 | 298 | 0.0 | 2.0 | 0.00 | 0.00 | 0.00 | 87 | 1013.5 |
| 20260510025707 | 47 | 281 | 1.0 | 2.0 | 0.00 | 0.00 | 0.00 | 87 | 1013.5 |
| 20260510025204 | 47 | 265 | 0.0 | 1.0 | 0.00 | 0.00 | 0.00 | 86 | 1013.5 |
| 20260510024701 | 47 | 316 | 1.0 | 1.0 | 0.00 | 0.00 | 0.00 | 86 | 1013.5 |
| 20260510024158 | 47 | 331 | 0.0 | 2.0 | 0.00 | 0.00 | 0.00 | 86 | 1013.5 |
| 20260510023704 | 47 | 270 | 0.0 | 3.0 | 0.00 | 0.00 | 0.00 | 86 | 1013.5 |
| 20260510023204 | 47 | 298 | 1.0 | 3.0 | 0.00 | 0.00 | 0.00 | 85 | 1013.5 |
| 20260510022701 | 47 | 299 | 1.0 | 3.0 | 0.00 | 0.00 | 0.00 | 85 | 1013.9 |
| 20260510022158 | 47 | 321 | 1.0 | 3.0 | 0.00 | 0.00 | 0.00 | 85 | 1013.9 |
| 20260510021658 | 47 | 317 | 0.0 | 3.0 | 0.00 | 0.00 | 0.00 | 85 | 1013.9 |
| 20260510021158 | 47 | 298 | 1.0 | 4.0 | 0.00 | 0.00 | 0.00 | 85 | 1013.5 |
| 20260510020701 | 48 | 296 | 1.0 | 3.0 | 0.00 | 0.00 | 0.00 | 84 | 1013.9 |
| 20260510020204 | 48 | 323 | 2.0 | 3.0 | 0.00 | 0.00 | 0.00 | 84 | 1013.5 |
| 20260510015658 | 48 | 294 | 1.0 | 2.0 | 0.00 | 0.00 | 0.00 | 84 | 1013.5 |
| 20260510015158 | 48 | 276 | 0.0 | 2.0 | 0.00 | 0.00 | 0.00 | 83 | 1013.9 |
| 20260510014701 | 48 | 290 | 1.0 | 2.0 | 0.00 | 0.00 | 0.00 | 83 | 1013.9 |
| 20260510014201 | 49 | 324 | 1.0 | 2.0 | 0.00 | 0.00 | 0.00 | 83 | 1013.9 |
| 20260510013658 | 49 | 301 | 1.0 | 3.0 | 0.00 | 0.00 | 0.00 | 83 | 1013.9 |
| 20260510013204 | 49 | 312 | 1.0 | 1.0 | 0.00 | 0.00 | 0.00 | 83 | 1013.9 |
| 20260510012658 | 49 | 259 | 0.0 | 1.0 | 0.00 | 0.00 | 0.00 | 82 | 1013.9 |
| 20260510012158 | 49 | 325 | 0.0 | 1.0 | 0.00 | 0.00 | 0.00 | 82 | 1013.9 |
| 20260510011701 | 49 | 314 | 0.0 | 3.0 | 0.00 | 0.00 | 0.00 | 82 | 1013.9 |
| 20260510011158 | 49 | 326 | 1.0 | 3.0 | 0.00 | 0.00 | 0.00 | 81 | 1013.9 |
| 20260510010701 | 49 | 301 | 0.0 | 3.0 | 0.00 | 0.00 | 0.00 | 81 | 1014.2 |
| 20260510010158 | 50 | 219 | 1.0 | 2.0 | 0.00 | 0.00 | 0.00 | 81 | 1014.2 |
| 20260510005658 | 50 | 302 | 0.0 | 3.0 | 0.00 | 0.00 | 0.00 | 81 | 1013.9 |
| 20260510005158 | 50 | 295 | 1.0 | 3.0 | 0.00 | 0.00 | 0.00 | 80 | 1014.2 |
| 20260510004658 | 50 | 313 | 1.0 | 4.0 | 0.00 | 0.00 | 0.00 | 80 | 1014.2 |
| 20260510004201 | 51 | 286 | 1.0 | 2.0 | 0.00 | 0.00 | 0.00 | 79 | 1014.2 |
| 20260510003701 | 51 | 327 | 0.0 | 1.0 | 0.00 | 0.00 | 0.00 | 79 | 1014.2 |
| 20260510003201 | 51 | 320 | 0.0 | 2.0 | 0.00 | 0.00 | 0.00 | 79 | 1014.2 |
| 20260510002701 | 51 | 249 | 1.0 | 2.0 | 0.00 | 0.00 | 0.00 | 79 | 1014.6 |
| 20260510002201 | 51 | 323 | 1.0 | 2.0 | 0.00 | 0.00 | 0.00 | 78 | 1014.6 |
| 20260510001701 | 51 | 295 | 0.0 | 1.0 | 0.00 | 0.00 | 0.00 | 78 | 1014.6 |
| 20260510001201 | 51 | 312 | 0.0 | 2.0 | 0.00 | 0.00 | 0.00 | 78 | 1014.6 |
| 20260510000701 | 51 | 295 | 1.0 | 3.0 | 0.00 | 0.00 | 0.00 | 78 | 1014.6 |
| 20260510000158 | 51 | 249 | 0.0 | 2.0 | 0.00 | 0.00 | 0.00 | 79 | 1015.0 |
| 20260509235701 | 51 | 327 | 1.0 | 2.0 | 0.00 | 0.00 | 0.00 | 80 | 1015.0 |
| 20260509235201 | 51 | 325 | 0.0 | 1.0 | 0.00 | 0.00 | 0.00 | 80 | 1015.0 |
| 20260509234658 | 51 | 320 | 1.0 | 1.0 | 0.00 | 0.00 | 0.00 | 81 | 1015.0 |
| 20260509234158 | 51 | 301 | 0.0 | 1.0 | 0.00 | 0.00 | 0.00 | 81 | 1015.0 |
| 20260509233658 | 51 | 298 | 0.0 | 1.0 | 0.00 | 0.00 | 0.00 | 81 | 1015.0 |
| 20260509233158 | 51 | 322 | 0.0 | 1.0 | 0.00 | 0.00 | 0.00 | 81 | 1015.0 |
| 20260509232658 | 51 | 324 | 0.0 | 2.0 | 0.00 | 0.00 | 0.00 | 81 | 1015.3 |
| 20260509232158 | 51 | 279 | 0.0 | 2.0 | 0.00 | 0.00 | 0.00 | 80 | 1015.3 |
| 20260509231707 | 51 | 290 | 1.0 | 2.0 | 0.00 | 0.00 | 0.00 | 80 | 1015.3 |
| 20260509231158 | 51 | 315 | 1.0 | 2.0 | 0.00 | 0.00 | 0.00 | 80 | 1015.0 |
| 20260509230658 | 51 | 232 | 0.0 | 1.0 | 0.00 | 0.00 | 0.00 | 80 | 1015.0 |
| 20260509230201 | 51 | 316 | 0.0 | 2.0 | 0.00 | 0.00 | 0.00 | 80 | 1015.0 |
| 20260509225701 | 51 | 325 | 1.0 | 2.0 | 0.00 | 0.00 | 0.00 | 79 | 1015.3 |
| 20260509225158 | 51 | 281 | 0.0 | 3.0 | 0.00 | 0.00 | 0.00 | 78 | 1015.3 |
| 20260509224658 | 52 | 312 | 1.0 | 2.0 | 0.00 | 0.00 | 0.00 | 78 | 1015.3 |
| 20260509224201 | 52 | 312 | 1.0 | 3.0 | 0.00 | 0.00 | 0.00 | 77 | 1015.3 |
| 20260509223658 | 53 | 295 | 1.0 | 3.0 | 0.00 | 0.00 | 0.00 | 76 | 1015.3 |
| 20260509223158 | 53 | 314 | 1.0 | 2.0 | 0.00 | 0.00 | 0.00 | 75 | 1015.3 |
| 20260509222658 | 53 | 295 | 1.0 | 1.0 | 0.00 | 0.00 | 0.00 | 75 | 1015.3 |
| 20260509222158 | 54 | 304 | 0.0 | 3.0 | 0.00 | 0.00 | 0.00 | 74 | 1015.3 |
| 20260509221704 | 53 | 326 | 1.0 | 2.0 | 0.00 | 0.00 | 0.00 | 75 | 1015.3 |
| 20260509221158 | 54 | 309 | 0.0 | 1.0 | 0.00 | 0.00 | 0.00 | 75 | 1015.3 |
| 20260509220658 | 54 | 257 | 0.0 | 2.0 | 0.00 | 0.00 | 0.00 | 74 | 1015.3 |
| 20260509220204 | 54 | 291 | 1.0 | 2.0 | 0.00 | 0.00 | 0.00 | 74 | 1015.3 |
| 20260509215701 | 54 | 255 | 0.0 | 2.0 | 0.00 | 0.00 | 0.00 | 73 | 1015.3 |
| 20260509215158 | 55 | 242 | 0.0 | 2.0 | 0.00 | 0.00 | 0.00 | 72 | 1015.3 |
| 20260509214658 | 55 | 265 | 1.0 | 2.0 | 0.00 | 0.00 | 0.00 | 72 | 1015.3 |
| 20260509214158 | 55 | 305 | 0.0 | 1.0 | 0.00 | 0.00 | 0.00 | 72 | 1015.3 |
| 20260509213658 | 55 | 267 | 0.0 | 3.0 | 0.00 | 0.00 | 0.00 | 72 | 1015.3 |
| 20260509213158 | 55 | 326 | 0.0 | 2.0 | 0.00 | 0.00 | 0.00 | 72 | 1015.3 |
| 20260509212658 | 55 | 272 | 0.0 | 3.0 | 0.00 | 0.00 | 0.00 | 71 | 1015.6 |
| 20260509212158 | 56 | 286 | 1.0 | 2.0 | 0.00 | 0.00 | 0.00 | 71 | 1015.3 |
| 20260509211658 | 56 | 302 | 1.0 | 1.0 | 0.00 | 0.00 | 0.00 | 71 | 1015.3 |
| 20260509211158 | 56 | 298 | 0.0 | 1.0 | 0.00 | 0.00 | 0.00 | 70 | 1015.3 |
| 20260509210701 | 56 | 310 | 0.0 | 1.0 | 0.00 | 0.00 | 0.00 | 70 | 1015.3 |
| 20260509210158 | 57 | 289 | 0.0 | 1.0 | 0.00 | 0.00 | 0.00 | 69 | 1015.3 |